Simultaneous Nadir Overpasses (SNOs) Predictions

Prediction of SNOs between METOP-B and NOAA-19 Satellite Orbit:

Table of predicted SNOs for the next 14.0 days since TLE Epoch: 1/10/2020
Index Date (METOP-B) Time (METOP-B) Lat,Lon (METOP-B) SZA (METOP-B ) Date (NOAA-19) Time (NOAA-19) Lat,Lon (NOAA-19) SZA (NOAA-19 ) Distance(km) Time Diff (sec)
1 01/19/2020 07:43:00 -79.76, -95.59 79.43 01/19/2020 07:41:49 -79.74, -95.65 79.47 2.51 71
2 01/19/2020 08:33:41 79.73, 71.51 100.53 01/19/2020 08:32:54 79.75, 71.53 100.53 1.22 47
3 01/19/2020 09:24:22 -79.75,-121.04 79.46 01/19/2020 09:23:49 -79.72,-120.94 79.49 3.54 33
4 01/19/2020 10:15:03 79.72, 46.06 100.50 01/19/2020 10:14:54 79.73, 46.23 100.51 3.41 9
5 01/19/2020 11:05:44 -79.74,-146.48 79.49 01/19/2020 11:05:50 -79.73,-146.53 79.50 1.18 6
6 01/19/2020 11:56:25 79.71, 20.61 100.47 01/19/2020 11:56:55 79.74, 20.64 100.50 2.82 30
7 01/19/2020 12:47:06 -79.72,-171.93 79.52 01/19/2020 12:47:50 -79.71,-171.82 79.52 2.59 44
8 01/19/2020 13:37:46 79.73, -4.55 100.48 01/19/2020 13:38:55 79.72, -4.66 100.48 2.57 69




NCC Satellite Simultaneous Nadir Overpasses (SNOs) Prediction Service
